Paynesville, MN

8:38 AM CST on November 20, 2017 (GMT -0600)
Paynesville

Weather History for KPEX - August, 2013

Change the Weather History Date:

Saturday, August 3, 2013

  Actual Average (KLJF) Record (KLJF)
Temperature  
Mean Temperature 61 °F -  
Max Temperature 77 °F 82 °F 97 °F (1964)
Min Temperature 45 °F 59 °F 42 °F (1971)
Degree Days  
Heating Degree Days 4    
Growing Degree Days 11 (Base 50)    
Moisture  
Dew Point 47 °F    
Average Humidity 64    
Maximum Humidity 96    
Minimum Humidity 29    
Precipitation  
Precipitation 0.00 in - - ()
Sea Level Pressure  
Sea Level Pressure 30.17 in    
Wind  
Wind Speed 2 mph (NNW)    
Max Wind Speed 10 mph    
Max Gust Speed 18 mph    
Visibility 8 miles    
Events      
Averages and records for this station are not official NWS values.
T = Trace of Precipitation, MM = Missing Value Source: NWS Daily Summary

Daily Weather History Graph

Daily Weather History Graph

Search for Another Location

Airport or City:

Trip Planner

Search our weather history database for the weather conditions in past years. The results will help you decide how hot, cold, wet, or windy it might be!

Date:

Astronomy

Aug. 03, 2013 Rise Set
Actual Time 6:05 AM CDT 8:43 PM CDT
Civil Twilight 5:32 AM CDT 9:17 PM CDT
Nautical Twilight 4:49 AM CDT 9:59 PM CDT
Astronomical Twilight 4:00 AM CDT 10:48 PM CDT
Moon 3:14 AM CDT (8/3) 6:27 PM CDT (8/3)
Length of Visible Light 15h 45m
Length of Day
14h 37m
Waning Crescent, 9% of the Moon is Illuminated
Aug 3
Waning Crescent
Aug 6
New
Aug 14
First Quarter
Aug 20
Full
Aug 28
Last Quarter

Hourly Weather History & Observations

Time (CDT) Temp. Dew Point Humidity Pressure Visibility Wind Dir Wind Speed Gust Speed Precip Events Conditions
12:13 AM 52.3 °F 50.2 °F 92% 30.09 in 10.0 mi Calm Calm - N/A   Clear
12:33 AM 51.8 °F 49.6 °F 92% 30.09 in 10.0 mi WSW 3.5 mph - N/A   Clear
12:53 AM 50.9 °F 48.9 °F 93% 30.10 in 10.0 mi Calm Calm - N/A   Clear
1:13 AM 50.9 °F 49.3 °F 94% 30.10 in 10.0 mi WSW 3.5 mph - N/A   Clear
1:32 AM 50.9 °F 48.9 °F 93% 30.10 in 10.0 mi Calm Calm - N/A   Clear
1:53 AM 50.2 °F 48.4 °F 94% 30.09 in 10.0 mi Calm Calm - N/A   Clear
2:13 AM 49.6 °F 47.5 °F 92% 30.10 in 10.0 mi Calm Calm - N/A   Clear
2:33 AM 50.0 °F 47.5 °F 91% 30.10 in 10.0 mi Calm Calm - N/A   Clear
2:52 AM 49.5 °F 47.1 °F 92% 30.10 in 10.0 mi Calm Calm - N/A   Clear
3:13 AM 49.5 °F 46.8 °F 90% 30.11 in 10.0 mi Calm Calm - N/A   Clear
3:33 AM 48.0 °F 45.9 °F 92% 30.11 in 10.0 mi Calm Calm - N/A   Clear
3:53 AM 48.0 °F 46.2 °F 93% 30.11 in 10.0 mi Calm Calm - N/A   Clear
4:13 AM 48.7 °F 46.9 °F 93% 30.11 in 10.0 mi Calm Calm - N/A   Clear
4:32 AM 48.0 °F 46.2 °F 93% 30.11 in 10.0 mi Calm Calm - N/A   Clear
4:53 AM 46.6 °F 44.8 °F 93% 30.12 in 10.0 mi Calm Calm - N/A   Clear
5:13 AM 47.3 °F 45.9 °F 95% 30.11 in 10.0 mi Calm Calm - N/A   Clear
5:32 AM 46.4 °F 45.0 °F 95% 30.12 in 10.0 mi Calm Calm - N/A   Clear
5:53 AM 45.7 °F 44.6 °F 96% 30.13 in 10.0 mi Calm Calm - N/A   Clear
6:13 AM 45.5 °F 44.4 °F 96% 30.14 in 10.0 mi Calm Calm - N/A   Clear
6:33 AM 46.2 °F 45.0 °F 95% 30.14 in 7.0 mi Calm Calm - N/A   Clear
6:53 AM 47.7 °F 46.4 °F 95% 30.14 in 10.0 mi Calm Calm - N/A   Clear
7:13 AM 49.5 °F 48.2 °F 95% 30.14 in 10.0 mi Calm Calm - N/A   Clear
7:33 AM 51.1 °F 49.3 °F 94% 30.16 in 10.0 mi Calm Calm - N/A   Clear
7:53 AM 53.1 °F 50.4 °F 91% 30.17 in 10.0 mi Calm Calm - N/A   Clear
8:13 AM 56.8 °F 52.9 °F 87% 30.18 in 10.0 mi Calm Calm - N/A   Scattered Clouds
8:33 AM 59.5 °F 54.1 °F 82% 30.18 in 10.0 mi Calm Calm - N/A   Overcast
8:53 AM 61.0 °F 54.5 °F 79% 30.18 in 10.0 mi Calm Calm - N/A   Mostly Cloudy
9:13 AM 63.7 °F 54.7 °F 72% 30.18 in 7.0 mi Calm Calm - N/A   Scattered Clouds
9:33 AM 65.7 °F 54.1 °F 66% 30.18 in 4.0 mi Calm Calm - N/A   Haze
9:53 AM 67.1 °F 53.8 °F 62% 30.19 in 4.0 mi Calm Calm - N/A   Haze
10:12 AM 67.1 °F 52.7 °F 60% 30.19 in 10.0 mi Calm Calm - N/A   Scattered Clouds
10:33 AM 69.6 °F 52.3 °F 54% 30.19 in 4.0 mi NW 5.8 mph - N/A   Haze
10:53 AM 70.9 °F 51.1 °F 49% 30.19 in 10.0 mi NE 3.5 mph - N/A   Scattered Clouds
11:13 AM 72.5 °F 49.1 °F 44% 30.19 in 10.0 mi North 4.6 mph - N/A   Scattered Clouds
11:33 AM 72.5 °F 48.4 °F 42% 30.19 in 10.0 mi NNW 6.9 mph - N/A   Clear
11:52 AM 71.8 °F 47.7 °F 42% 30.19 in 5.0 mi NNW 8.1 mph - N/A   Haze
12:13 PM 73.0 °F 48.0 °F 41% 30.19 in 5.0 mi NNW 6.9 mph - N/A   Haze
12:33 PM 72.9 °F 46.9 °F 40% 30.19 in 10.0 mi NNW 9.2 mph - N/A   Scattered Clouds
12:53 PM 72.9 °F 46.4 °F 39% 30.20 in 7.0 mi NW 4.6 mph - N/A   Scattered Clouds
1:13 PM 74.3 °F 45.1 °F 35% 30.20 in 10.0 mi North 5.8 mph - N/A   Scattered Clouds
1:32 PM 75.2 °F 44.2 °F 33% 30.20 in 5.0 mi North 8.1 mph - N/A   Haze
1:53 PM 75.4 °F 43.7 °F 32% 30.19 in 5.0 mi Calm Calm - N/A   Haze
2:13 PM 75.2 °F 43.7 °F 32% 30.20 in 7.0 mi WNW 4.6 mph - N/A   Scattered Clouds
2:33 PM 74.8 °F 42.8 °F 32% 30.19 in 7.0 mi WNW 10.4 mph - N/A   Scattered Clouds
2:52 PM 76.1 °F 43.9 °F 32% 30.19 in 5.0 mi NW 3.5 mph - N/A   Haze
3:13 PM 77.0 °F 43.2 °F 30% 30.18 in 7.0 mi North 6.9 mph - N/A   Scattered Clouds
3:33 PM 76.5 °F 42.8 °F 30% 30.18 in 7.0 mi NW 5.8 mph - N/A   Scattered Clouds
3:53 PM 77.7 °F 44.6 °F 31% 30.18 in 5.0 mi NNW 8.1 mph 17.3 mph N/A   Haze
4:13 PM 76.6 °F 45.0 °F 32% 30.18 in 5.0 mi North 8.1 mph 18.4 mph N/A   Haze
4:32 PM 76.3 °F 43.9 °F 31% 30.18 in 5.0 mi North 5.8 mph - N/A   Haze
4:53 PM 75.6 °F 43.3 °F 32% 30.18 in 5.0 mi NNW 8.1 mph - N/A   Haze
5:13 PM 76.1 °F 43.5 °F 31% 30.18 in 5.0 mi North 5.8 mph 18.4 mph N/A   Haze
5:32 PM 76.3 °F 42.8 °F 30% 30.18 in 7.0 mi North 8.1 mph - N/A   Scattered Clouds
5:53 PM 75.4 °F 41.4 °F 29% 30.18 in 5.0 mi NNW 6.9 mph - N/A   Haze
6:13 PM 75.0 °F 41.2 °F 30% 30.18 in 5.0 mi NNW 6.9 mph - N/A   Haze
6:32 PM 74.1 °F 41.4 °F 31% 30.18 in 7.0 mi NNW 9.2 mph - N/A   Clear
6:53 PM 73.6 °F 41.2 °F 31% 30.18 in 7.0 mi NNW 5.8 mph - N/A   Clear
7:13 PM 72.9 °F 42.1 °F 33% 30.18 in 4.0 mi North 4.6 mph - N/A   Haze
7:32 PM 72.1 °F 42.6 °F 34% 30.18 in 5.0 mi North 3.5 mph - N/A   Haze
7:53 PM 70.7 °F 44.4 °F 39% 30.18 in 5.0 mi North 3.5 mph - N/A   Haze
8:13 PM 68.7 °F 46.6 °F 45% 30.18 in 7.0 mi Calm Calm - N/A   Clear
8:32 PM 66.6 °F 47.7 °F 51% 30.19 in 7.0 mi Calm Calm - N/A   Clear
8:53 PM 63.7 °F 48.6 °F 58% 30.19 in 5.0 mi Calm Calm - N/A   Haze
9:13 PM 62.4 °F 49.1 °F 62% 30.20 in 7.0 mi Calm Calm - N/A   Clear
9:33 PM 59.7 °F 49.1 °F 68% 30.20 in 10.0 mi Calm Calm - N/A   Clear
9:52 PM 59.0 °F 49.3 °F 70% 30.21 in 10.0 mi Calm Calm - N/A   Clear
10:13 PM 57.2 °F 49.6 °F 76% 30.21 in 10.0 mi Calm Calm - N/A   Clear
10:33 PM 57.4 °F 49.1 °F 74% 30.22 in 10.0 mi Calm Calm - N/A   Clear
10:52 PM 54.9 °F 49.1 °F 81% 30.22 in 10.0 mi Calm Calm - N/A   Clear
11:13 PM 53.6 °F 48.6 °F 83% 30.22 in 10.0 mi Calm Calm - N/A   Clear
11:33 PM 53.1 °F 48.4 °F 84% 30.24 in 10.0 mi Calm Calm - N/A   Clear
11:53 PM 52.2 °F 48.2 °F 86% 30.24 in 10.0 mi Calm Calm - N/A   Clear